MST,Max TemperatureF,Mean TemperatureF,Min TemperatureF,Max Dew PointF,MeanDew PointF,Min DewpointF,Max Humidity, Mean Humidity, Min Humidity, Max Sea Level PressureIn, Mean Sea Level PressureIn, Min Sea Level PressureIn, Max VisibilityMiles, Mean VisibilityMiles, Min VisibilityMiles, Max Wind SpeedMPH, Mean Wind SpeedMPH, Max Gust SpeedMPH,PrecipitationIn, CloudCover, Events, WindDirDegrees
2012-12-1,71,52,33,30,22,15,69,42,15,30.18,30.08,29.97,10,10,10,18,7,23,0.00,0,,172
2012-12-2,68,48,28,31,23,15,58,40,22,30.18,30.06,29.96,10,10,10,20,8,26,0.00,0,,161
2012-12-3,63,50,37,38,32,28,76,55,34,30.22,30.09,29.95,10,10,10,16,5,21,0.00,1,,267
2012-12-4,62,46,30,30,25,19,72,49,25,30.44,30.33,30.23,10,10,10,13,4,15,0.00,0,,119
2012-12-5,72,50,28,22,18,15,63,39,15,30.32,30.15,30.00,10,10,10,12,4,15,0.00,0,,122
2012-12-6,63,46,29,30,21,12,54,39,23,30.02,29.95,29.86,10,10,10,10,4,13,0.00,0,,145
2012-12-7,61,44,26,30,23,18,75,52,29,30.04,29.96,29.89,10,10,10,9,3,13,0.00,0,,302
2012-12-8,64,44,23,28,20,13,74,44,14,30.05,29.93,29.84,10,10,10,20,7,24,0.00,0,,208
2012-12-9,52,34,16,25,13,-2,63,42,21,30.29,30.05,29.88,10,9,2,25,9,33,0.00,0,,315
2012-12-10,45,28,11,2,-1,-7,58,37,16,30.39,30.27,30.16,10,10,10,12,3,13,0.00,0,,215
2012-12-11,48,31,13,11,3,-6,47,34,21,30.28,30.17,30.09,10,10,10,12,5,15,0.00,0,,119
2012-12-12,59,40,21,12,6,4,45,30,14,30.12,30.04,29.93,10,10,10,26,9,33,0.00,0,,146
2012-12-13,60,42,24,38,14,4,82,49,16,30.05,29.91,29.69,10,10,10,25,10,32,0.08,1,Rain,142
2012-12-14,44,40,35,38,31,24,92,71,49,29.97,29.77,29.58,10,10,7,35,12,41,0.26,6,Rain,171
2012-12-15,47,37,27,36,31,24,89,71,53,29.96,29.90,29.81,10,9,2,25,7,32,0.06,6,Rain-Snow,133
2012-12-16,43,34,25,28,26,22,92,73,53,30.17,30.07,29.96,10,10,9,15,5,20,T,2,,243
2012-12-17,50,37,23,32,26,20,88,71,54,30.20,30.11,30.00,10,10,10,20,5,25,0.00,1,,133
2012-12-18,51,38,25,34,29,22,92,67,42,29.97,29.80,29.56,10,10,10,29,13,39,T,0,,175
2012-12-19,41,30,18,36,19,6,82,56,29,30.47,29.99,29.57,10,10,8,31,12,39,0.11,3,Rain-Snow,278
2012-12-20,36,23,10,17,12,6,84,60,35,30.63,30.54,30.48,10,10,10,9,3,12,0.00,0,,103
2012-12-21,37,25,12,19,14,8,84,62,40,30.49,30.40,30.30,10,10,10,8,1,9,0.00,0,,263
2012-12-22,47,35,22,23,20,18,88,63,37,30.33,30.25,30.14,10,10,10,8,1,9,0.00,0,,149
2012-12-23,55,38,20,24,18,10,91,55,18,30.23,30.12,30.02,10,10,10,13,4,14,0.00,1,,142
2012-12-24,53,40,26,32,26,16,82,60,38,30.00,29.90,29.78,10,7,0,39,13,49,0.07,4,Fog-Snow,264
2012-12-25,35,26,16,20,15,10,88,63,38,30.24,30.15,29.95,10,10,10,15,4,21,0.00,0,,284
2012-12-26,51,35,18,25,20,14,92,60,28,30.09,29.90,29.76,10,10,10,31,10,38,0.00,1,,177
2012-12-27,42,33,24,28,22,18,85,69,52,30.02,29.87,29.80,10,8,1,28,7,36,0.05,4,Snow,228
2012-12-28,39,28,16,19,15,12,80,59,37,30.32,30.19,30.02,10,10,10,6,3,,0.00,1,,287
2012-12-29,37,23,9,16,13,6,88,64,40,30.38,30.22,30.11,10,10,10,12,4,14,0.00,0,,158
2012-12-30,36,27,18,23,16,13,84,64,44,30.09,29.97,29.88,10,10,10,10,3,12,T,3,Snow,272
2012-12-31,37,28,19,25,22,17,88,74,59,30.21,30.02,29.85,10,8,2,10,2,13,0.01,6,Snow,285